Location: Caltech
(34.1382°N, 118.1253°W)
Time: 01:33:10
(UTC-07:00)

SL-08 R/B - Visible Passes

Search period start: 05 May 2016 00:00
Search period end: 15 May 2016 00:00
Orbit: 675 x 740 km, 98.2° (Epoch: 04 May)

Date Brightness Start Highest point End Pass type
(mag) Time Alt. Az. Time Alt. Az. Time Alt. Az.
05 May 4.8 03:05:26 29° NNW 03:05:26 29° NNW 03:07:47 10° NNW visible
06 May 5.4 02:11:13 24° NE 02:11:13 24° NE 02:13:47 10° NNE visible
06 May 5.3 03:50:12 15° NW 03:50:12 15° NW 03:51:19 10° NW visible
07 May 4.6 02:55:59 35° N 02:55:59 35° N 02:58:40 10° NNW visible
08 May 5.5 02:01:46 21° NE 02:01:46 21° NE 02:04:22 10° NNE visible
08 May 5.1 03:40:45 19° NW 03:40:45 19° NW 03:42:30 10° NW visible
09 May 4.5 02:46:32 38° N 02:46:32 38° N 02:49:32 10° N visible
10 May 5.7 01:52:19 18° ENE 01:52:19 18° ENE 01:54:53 10° NNE visible
10 May 4.8 03:31:19 25° NW 03:31:19 25° NW 03:33:35 10° NNW visible
11 May 4.5 02:37:06 39° NNE 02:37:06 39° NNE 02:40:20 10° N visible
12 May 5.9 01:42:53 15° ENE 01:42:53 15° ENE 01:45:15 10° NNE visible
12 May 4.5 03:21:52 31° NW 03:21:52 31° NW 03:24:37 10° NNW visible
13 May 4.6 02:27:40 37° NE 02:27:40 37° NE 02:31:06 10° N visible
13 May 5.4 04:06:39 12° WNW 04:06:39 12° WNW 04:07:25 10° WNW visible
14 May 6.0 01:33:27 12° ENE 01:33:39 12° ENE 01:35:21 10° NE visible
14 May 4.2 03:12:27 39° NW 03:12:27 39° NW 03:15:36 10° NNW visible
